| time (UTC) | temp F | wind direction | speed knots | gust knots | rain 1hr in | rain 24hr in | rain mn in | humidity % | barometer mb |
| 20260504205346 | 76 | 258 | 0.0 | 0.0 | 0.00 | 0.01 | 0.01 | 99 | 1004.9 |
| 20260504204844 | 76 | 259 | 0.0 | 0.9 | 0.00 | 0.01 | 0.01 | 99 | 1005.2 |
| 20260504204343 | 76 | 263 | 0.0 | 0.0 | 0.00 | 0.01 | 0.01 | 99 | 1005.2 |
| 20260504203842 | 76 | 265 | 0.0 | 0.9 | 0.00 | 0.01 | 0.01 | 99 | 1004.9 |
| 20260504203338 | 76 | 339 | 0.0 | 0.9 | 0.00 | 0.01 | 0.01 | 99 | 1005.0 |
| 20260504202834 | 76 | 252 | 0.0 | 0.9 | 0.00 | 0.01 | 0.01 | 99 | 1004.9 |
| 20260504202331 | 76 | 264 | 0.0 | 0.9 | 0.00 | 0.01 | 0.01 | 99 | 1005.1 |
| 20260504201828 | 76 | 286 | 0.0 | 0.9 | 0.00 | 0.01 | 0.01 | 99 | 1005.1 |
| 20260504201326 | 76 | 253 | 0.0 | 0.9 | 0.00 | 0.01 | 0.01 | 99 | 1005.1 |
| 20260504200823 | 76 | 247 | 0.0 | 0.0 | 0.00 | 0.01 | 0.01 | 99 | 1005.1 |
| 20260504200319 | 76 | 281 | 0.9 | 0.9 | 0.00 | 0.01 | 0.01 | 99 | 1005.2 |
| 20260504195815 | 76 | 255 | 0.9 | 0.9 | 0.00 | 0.01 | 0.01 | 99 | 1005.1 |
| 20260504195311 | 76 | 252 | 0.0 | 0.0 | 0.00 | 0.01 | 0.01 | 99 | 1005.2 |
| 20260504194808 | 76 | 245 | 0.0 | 0.0 | 0.00 | 0.01 | 0.01 | 99 | 1005.1 |
| 20260504194304 | 76 | 245 | 0.0 | 0.0 | 0.00 | 0.01 | 0.01 | 99 | 1005.2 |
| 20260504193800 | 76 | 241 | 0.0 | 0.0 | 0.00 | 0.01 | 0.01 | 99 | 1005.1 |
| 20260504193258 | 76 | 241 | 0.0 | 0.0 | 0.00 | 0.01 | 0.01 | 99 | 1005.3 |
| 20260504192756 | 76 | 252 | 0.0 | 0.9 | 0.00 | 0.01 | 0.01 | 99 | 1005.3 |
| 20260504192254 | 76 | 250 | 0.0 | 0.9 | 0.00 | 0.01 | 0.01 | 99 | 1005.4 |
| 20260504191753 | 76 | 248 | 0.0 | 0.0 | 0.00 | 0.01 | 0.01 | 99 | 1005.4 |
| 20260504191249 | 76 | 246 | 0.0 | 0.0 | 0.00 | 0.01 | 0.01 | 99 | 1005.4 |
| 20260504190745 | 76 | 250 | 0.0 | 0.9 | 0.00 | 0.01 | 0.01 | 99 | 1005.5 |
| 20260504190241 | 76 | 247 | 0.0 | 0.0 | 0.00 | 0.01 | 0.01 | 99 | 1005.8 |
| 20260504185738 | 76 | 253 | 0.0 | 0.9 | 0.00 | 0.01 | 0.01 | 99 | 1005.7 |
| 20260504185235 | 76 | 252 | 0.0 | 0.0 | 0.00 | 0.01 | 0.01 | 99 | 1005.6 |
| 20260504184731 | 76 | 248 | 0.0 | 0.0 | 0.00 | 0.01 | 0.01 | 99 | 1005.7 |
| 20260504184227 | 76 | 257 | 0.0 | 0.9 | 0.00 | 0.01 | 0.01 | 99 | 1005.7 |
| 20260504183723 | 76 | 241 | 0.0 | 0.0 | 0.00 | 0.01 | 0.01 | 99 | 1005.9 |
| 20260504183220 | 76 | 245 | 0.0 | 0.0 | 0.00 | 0.01 | 0.01 | 99 | 1005.9 |
| 20260504182718 | 76 | 249 | 0.0 | 0.0 | 0.00 | 0.01 | 0.01 | 99 | 1005.9 |
| 20260504182215 | 76 | 248 | 0.0 | 0.9 | 0.00 | 0.01 | 0.01 | 99 | 1005.8 |
| 20260504181713 | 76 | 249 | 0.0 | 0.0 | 0.00 | 0.01 | 0.01 | 99 | 1006.1 |
| 20260504181210 | 77 | 248 | 0.0 | 0.0 | 0.00 | 0.01 | 0.01 | 99 | 1006.2 |
| 20260504180709 | 76 | 238 | 0.0 | 0.0 | 0.00 | 0.01 | 0.01 | 99 | 1006.1 |
| 20260504180207 | 76 | 246 | 0.0 | 0.9 | 0.00 | 0.01 | 0.01 | 99 | 1006.3 |
| 20260504175704 | 76 | 245 | 0.0 | 0.0 | 0.00 | 0.01 | 0.01 | 99 | 1006.4 |
| 20260504175201 | 76 | 248 | 0.0 | 0.0 | 0.00 | 0.01 | 0.01 | 99 | 1006.3 |
| 20260504174659 | 77 | 241 | 0.0 | 0.0 | 0.00 | 0.01 | 0.01 | 99 | 1006.4 |
| 20260504174156 | 77 | 241 | 0.0 | 0.0 | 0.00 | 0.01 | 0.01 | 99 | 1006.3 |
| 20260504173652 | 77 | 243 | 0.0 | 0.0 | 0.00 | 0.01 | 0.01 | 99 | 1006.7 |
| 20260504173150 | 77 | 248 | 0.0 | 0.0 | 0.07 | 0.01 | 0.01 | 99 | 1006.6 |
| 20260504172646 | 77 | 241 | 0.0 | 0.0 | 0.07 | 0.01 | 0.01 | 99 | 1006.7 |
| 20260504172143 | 77 | 241 | 0.0 | 0.0 | 0.00 | 0.00 | 0.00 | 99 | 1006.9 |
| 20260504171639 | 77 | 252 | 0.0 | 0.0 | 0.00 | 0.00 | 0.00 | 99 | 1007.0 |
| 20260504171137 | 77 | 248 | 0.0 | 0.0 | 0.00 | 0.00 | 0.00 | 99 | 1006.9 |
| 20260504170633 | 77 | 252 | 0.0 | 0.9 | 0.00 | 0.00 | 0.00 | 99 | 1007.0 |
| 20260504170131 | 77 | 248 | 0.0 | 0.9 | 0.00 | 0.00 | 0.00 | 99 | 1006.9 |
| 20260504151016 | 77 | 292 | 0.9 | 1.7 | 0.00 | 0.15 | 0.15 | 99 | 1007.1 |
| 20260504150514 | 77 | 261 | 0.0 | 0.0 | 0.00 | 0.15 | 0.15 | 99 | 1006.9 |
| 20260504140939 | 77 | 255 | 0.0 | 0.0 | 0.00 | 0.15 | 0.15 | 99 | 1006.0 |
| 20260504140436 | 77 | 249 | 0.0 | 0.0 | 0.00 | 0.15 | 0.15 | 99 | 1005.8 |
| 20260504130400 | 78 | 236 | 0.0 | 0.0 | 0.00 | 0.15 | 0.15 | 99 | 1005.7 |
| 20260504110248 | 81 | 268 | 0.0 | 0.0 | 0.00 | 0.01 | 0.01 | 93 | 1005.0 |
| 20260504100211 | 92 | 252 | 0.0 | 0.9 | 0.00 | 0.01 | 0.01 | 74 | 1002.6 |
| 20260504090134 | 94 | 286 | 0.9 | 0.9 | 0.00 | 0.01 | 0.01 | 73 | 1002.6 |
| 20260504081604 | 92 | 239 | 0.9 | 2.6 | 0.00 | 0.01 | 0.01 | 75 | 1002.7 |
| 20260504081100 | 91 | 302 | 0.9 | 2.6 | 0.00 | 0.01 | 0.01 | 75 | 1002.9 |
| 20260504080557 | 91 | 329 | 2.6 | 2.6 | 0.00 | 0.01 | 0.01 | 74 | 1002.9 |
| 20260504050409 | 89 | 287 | 0.0 | 1.7 | 0.00 | 0.01 | 0.01 | 81 | 1006.7 |
| 20260504045906 | 89 | 249 | 0.0 | 1.7 | 0.00 | 0.01 | 0.01 | 82 | 1006.6 |
| 20260504045402 | 89 | 104 | 2.6 | 4.3 | 0.00 | 0.01 | 0.01 | 81 | 1006.7 |
| 20260504044859 | 90 | 157 | 1.7 | 4.3 | 0.00 | 0.01 | 0.01 | 81 | 1006.9 |
| 20260504044356 | 89 | 231 | 0.0 | 1.7 | 0.00 | 0.01 | 0.01 | 82 | 1007.0 |
| 20260504043854 | 89 | 284 | 0.0 | 2.6 | 0.00 | 0.01 | 0.01 | 83 | 1007.2 |
| 20260504043350 | 89 | 335 | 0.9 | 2.6 | 0.00 | 0.01 | 0.01 | 82 | 1007.4 |
| 20260504042848 | 89 | 312 | 0.9 | 1.7 | 0.00 | 0.01 | 0.01 | 82 | 1007.3 |
| 20260504042344 | 88 | 30 | 0.9 | 1.7 | 0.00 | 0.01 | 0.01 | 83 | 1007.5 |
| 20260504041840 | 88 | 294 | 0.9 | 1.7 | 0.00 | 0.01 | 0.01 | 83 | 1007.5 |
| 20260504041337 | 88 | 277 | 0.9 | 1.7 | 0.00 | 0.01 | 0.01 | 83 | 1007.4 |
| 20260504040833 | 88 | 258 | 1.7 | 2.6 | 0.00 | 0.01 | 0.01 | 83 | 1007.6 |
| 20260504040331 | 88 | 78 | 0.9 | 1.7 | 0.00 | 0.01 | 0.01 | 83 | 1007.7 |
| 20260504035826 | 87 | 150 | 1.7 | 1.7 | 0.00 | 0.01 | 0.01 | 84 | 1007.5 |
| 20260504035324 | 87 | 22 | 1.7 | 2.6 | 0.00 | 0.01 | 0.01 | 84 | 1007.5 |
| 20260504034821 | 87 | 329 | 0.9 | 1.7 | 0.00 | 0.01 | 0.01 | 85 | 1007.5 |
| 20260504034318 | 87 | 297 | 0.9 | 1.7 | 0.00 | 0.01 | 0.01 | 86 | 1007.6 |
| 20260504033815 | 86 | 346 | 2.6 | 2.6 | 0.00 | 0.01 | 0.01 | 87 | 1007.4 |
| 20260504033313 | 86 | 356 | 1.7 | 2.6 | 0.00 | 0.01 | 0.01 | 86 | 1007.5 |
| 20260504032809 | 86 | 26 | 1.7 | 2.6 | 0.00 | 0.01 | 0.01 | 87 | 1007.8 |
| 20260504032307 | 86 | 267 | 0.9 | 1.7 | 0.00 | 0.01 | 0.01 | 88 | 1007.8 |
| 20260504031803 | 86 | 60 | 1.7 | 1.7 | 0.00 | 0.01 | 0.01 | 87 | 1008.1 |
| 20260504031301 | 87 | 275 | 1.7 | 1.7 | 0.00 | 0.01 | 0.01 | 87 | 1007.8 |
| 20260504030757 | 87 | 303 | 0.9 | 2.6 | 0.00 | 0.01 | 0.01 | 86 | 1007.8 |
| 20260504030254 | 86 | 217 | 0.9 | 1.7 | 0.00 | 0.01 | 0.01 | 87 | 1007.7 |
| 20260504025750 | 85 | 250 | 0.0 | 0.9 | 0.00 | 0.01 | 0.01 | 88 | 1007.8 |
| 20260504025247 | 84 | 193 | 0.0 | 0.9 | 0.00 | 0.01 | 0.01 | 89 | 1007.7 |
| 20260504024744 | 84 | 333 | 0.0 | 1.7 | 0.00 | 0.01 | 0.01 | 91 | 1007.6 |
| 20260504024241 | 83 | 312 | 0.0 | 1.7 | 0.00 | 0.01 | 0.01 | 92 | 1007.9 |
| 20260504023738 | 82 | 350 | 0.9 | 1.7 | 0.00 | 0.01 | 0.01 | 93 | 1007.9 |
| 20260504023234 | 81 | 80 | 0.9 | 1.7 | 0.00 | 0.01 | 0.01 | 96 | 1007.9 |
| 20260504022730 | 81 | 21 | 1.7 | 2.6 | 0.00 | 0.01 | 0.01 | 96 | 1008.0 |
| 20260504022226 | 80 | 288 | 0.9 | 1.7 | 0.00 | 0.01 | 0.01 | 97 | 1008.2 |
| 20260504021724 | 80 | 256 | 0.9 | 2.6 | 0.00 | 0.01 | 0.01 | 98 | 1008.2 |
| 20260504021221 | 80 | 287 | 1.7 | 2.6 | 0.00 | 0.01 | 0.01 | 98 | 1008.2 |
| 20260504020717 | 79 | 323 | 2.6 | 4.3 | 0.00 | 0.01 | 0.01 | 99 | 1008.1 |
| 20260504020214 | 80 | 18 | 0.9 | 1.7 | 0.00 | 0.01 | 0.01 | 99 | 1008.2 |
| 20260504015710 | 79 | 354 | 1.7 | 2.6 | 0.00 | 0.01 | 0.01 | 99 | 1008.2 |
| 20260504015207 | 79 | 243 | 0.0 | 0.9 | 0.00 | 0.01 | 0.01 | 99 | 1008.2 |
| 20260504014702 | 79 | 251 | 0.0 | 0.9 | 0.00 | 0.01 | 0.01 | 99 | 1008.3 |
| 20260504014159 | 78 | 294 | 0.9 | 1.7 | 0.00 | 0.01 | 0.01 | 99 | 1008.1 |
| 20260504013657 | 79 | 230 | 0.9 | 2.6 | 0.00 | 0.01 | 0.01 | 99 | 1007.9 |
| 20260504013154 | 78 | 264 | 0.9 | 1.7 | 0.00 | 0.01 | 0.01 | 99 | 1007.8 |
| 20260504012651 | 78 | 297 | 0.9 | 0.9 | 0.00 | 0.01 | 0.01 | 99 | 1008.1 |
| 20260504012149 | 78 | 257 | 0.9 | 0.9 | 0.00 | 0.01 | 0.01 | 99 | 1007.9 |
| 20260504011646 | 78 | 263 | 0.0 | 0.9 | 0.00 | 0.01 | 0.01 | 99 | 1007.8 |
| 20260504011142 | 77 | 0 | 0.9 | 1.7 | 0.00 | 0.01 | 0.01 | 99 | 1007.8 |
| 20260504010638 | 78 | 277 | 0.9 | 1.7 | 0.00 | 0.01 | 0.01 | 99 | 1007.6 |
| 20260504010134 | 77 | 284 | 0.0 | 2.6 | 0.00 | 0.01 | 0.01 | 99 | 1007.5 |
| 20260504005631 | 77 | 284 | 0.9 | 1.7 | 0.00 | 0.01 | 0.01 | 99 | 1007.6 |
| 20260504005128 | 77 | 290 | 2.6 | 2.6 | 0.00 | 0.01 | 0.01 | 99 | 1007.4 |
| 20260504004626 | 77 | 255 | 1.7 | 2.6 | 0.00 | 0.01 | 0.01 | 99 | 1007.3 |
| 20260504004123 | 77 | 264 | 0.9 | 1.7 | 0.00 | 0.01 | 0.01 | 99 | 1007.2 |
| 20260504003619 | 77 | 292 | 1.7 | 2.6 | 0.00 | 0.01 | 0.01 | 99 | 1007.1 |
| 20260504003116 | 76 | 251 | 0.0 | 2.6 | 0.00 | 0.01 | 0.01 | 99 | 1007.0 |
| 20260504002613 | 76 | 292 | 1.7 | 4.3 | 0.00 | 0.01 | 0.01 | 99 | 1007.0 |
| 20260504002110 | 76 | 269 | 0.9 | 1.7 | 0.00 | 0.01 | 0.01 | 99 | 1006.9 |
| 20260504001608 | 77 | 295 | 1.7 | 2.6 | 0.00 | 0.01 | 0.01 | 99 | 1006.7 |
| 20260504001103 | 76 | 250 | 0.0 | 0.9 | 0.00 | 0.01 | 0.01 | 99 | 1006.7 |
| 20260504000601 | 76 | 249 | 0.0 | 0.9 | 0.00 | 0.01 | 0.01 | 99 | 1006.8 |
| 20260504000058 | 76 | 249 | 0.0 | 0.0 | 0.00 | 0.01 | 0.01 | 99 | 1006.8 |
| 20260503235556 | 75 | 232 | 0.0 | 0.0 | 0.00 | 0.01 | 0.01 | 99 | 1006.7 |
| 20260503235053 | 75 | 233 | 0.0 | 0.9 | 0.00 | 0.01 | 0.01 | 99 | 1006.6 |
| 20260503234551 | 75 | 250 | 0.0 | 0.0 | 0.00 | 0.01 | 0.01 | 99 | 1006.5 |
| 20260503234049 | 75 | 261 | 0.0 | 0.0 | 0.00 | 0.01 | 0.01 | 99 | 1006.3 |
| 20260503233545 | 75 | 247 | 0.0 | 0.0 | 0.00 | 0.01 | 0.01 | 99 | 1006.3 |
| 20260503233041 | 75 | 243 | 0.0 | 0.0 | 0.00 | 0.01 | 0.01 | 99 | 1006.2 |
| 20260503232538 | 75 | 246 | 0.0 | 0.0 | 0.00 | 0.01 | 0.01 | 99 | 1006.2 |
| 20260503232036 | 74 | 244 | 0.0 | 0.0 | 0.00 | 0.01 | 0.01 | 99 | 1006.2 |
| 20260503231533 | 74 | 240 | 0.0 | 0.0 | 0.00 | 0.01 | 0.01 | 99 | 1006.3 |
| 20260503231030 | 74 | 235 | 0.0 | 0.0 | 0.00 | 0.01 | 0.01 | 99 | 1006.3 |
| 20260503230526 | 74 | 244 | 0.0 | 0.0 | 0.00 | 0.01 | 0.01 | 99 | 1006.2 |
| 20260503230024 | 74 | 246 | 0.0 | 0.9 | 0.00 | 0.01 | 0.01 | 99 | 1006.2 |
| 20260503225521 | 74 | 249 | 0.0 | 0.0 | 0.00 | 0.01 | 0.01 | 99 | 1006.2 |
| 20260503225016 | 74 | 251 | 0.0 | 0.9 | 0.00 | 0.01 | 0.01 | 99 | 1006.0 |
| 20260503224514 | 74 | 240 | 0.0 | 0.0 | 0.00 | 0.01 | 0.01 | 99 | 1005.8 |
| 20260503224011 | 74 | 247 | 0.0 | 0.9 | 0.00 | 0.01 | 0.01 | 99 | 1005.9 |
| 20260503223509 | 74 | 248 | 0.0 | 0.0 | 0.00 | 0.01 | 0.01 | 99 | 1005.8 |
| 20260503223004 | 75 | 248 | 0.0 | 0.9 | 0.00 | 0.01 | 0.01 | 99 | 1005.5 |
| 20260503222503 | 74 | 247 | 0.0 | 0.0 | 0.00 | 0.01 | 0.01 | 99 | 1005.5 |
| 20260503222000 | 74 | 251 | 0.0 | 0.9 | 0.00 | 0.01 | 0.01 | 99 | 1005.2 |
| 20260503221458 | 74 | 245 | 0.0 | 0.0 | 0.00 | 0.01 | 0.01 | 99 | 1005.3 |
| 20260503220950 | 74 | 239 | 0.0 | 0.0 | 0.00 | 0.01 | 0.01 | 99 | 1005.4 |
| 20260503220446 | 74 | 244 | 0.0 | 0.9 | 0.00 | 0.01 | 0.01 | 99 | 1005.4 |
| 20260503215943 | 74 | 249 | 0.0 | 0.0 | 0.00 | 0.01 | 0.01 | 99 | 1005.3 |
| 20260503215439 | 74 | 240 | 0.0 | 0.0 | 0.00 | 0.01 | 0.01 | 99 | 1005.2 |
| 20260503214937 | 74 | 244 | 0.0 | 0.0 | 0.00 | 0.01 | 0.01 | 99 | 1005.5 |
| 20260503214435 | 74 | 247 | 0.0 | 0.0 | 0.00 | 0.01 | 0.01 | 99 | 1005.3 |
| 20260503213932 | 75 | 248 | 0.0 | 0.0 | 0.00 | 0.01 | 0.01 | 99 | 1005.3 |
| 20260503213430 | 75 | 239 | 0.0 | 0.0 | 0.00 | 0.01 | 0.01 | 99 | 1005.1 |
| 20260503212926 | 75 | 244 | 0.0 | 0.0 | 0.00 | 0.01 | 0.01 | 99 | 1005.3 |
| 20260503212424 | 75 | 257 | 0.0 | 0.0 | 0.00 | 0.01 | 0.01 | 99 | 1005.1 |
| 20260503211921 | 75 | 246 | 0.0 | 0.0 | 0.00 | 0.01 | 0.01 | 99 | 1005.1 |
| 20260503211418 | 75 | 241 | 0.0 | 0.0 | 0.00 | 0.01 | 0.01 | 99 | 1004.9 |
| 20260503210913 | 75 | 245 | 0.0 | 0.0 | 0.00 | 0.01 | 0.01 | 99 | 1004.9 |
| 20260503210410 | 75 | 242 | 0.0 | 0.0 | 0.00 | 0.01 | 0.01 | 99 | 1005.1 |
| 20260503205905 | 75 | 242 | 0.0 | 0.0 | 0.00 | 0.01 | 0.01 | 99 | 1004.7 |